Location: Holbach
(51.5399°N, 10.6036°E)
Time: 11:48:47
(UTC+00:00)

IGS 5A - Pass Details

Date: 18 September 2020
Orbit: 583 x 588 km, 97.6° (Epoch: 09 October)

Event Time Altitude Azimuth Distance (km) Brightness Sun altitude
Exits shadow 19:37:08 41° 66° (ENE) 862 4.0 -20.4°
Drops below altitude 10° 19:40:58 10° 359° (N) 1,920 6.5 -21.0°
Sets 19:43:13 0° 352° (N) 2,824 7.5 -21.3°
